Regional Weather Roundup
Issued by NWS Mt. Holly, NJ

Current Version | Previous Version | Text Only | Print | Product List | Glossary On
Versions: 1 2 3 4 5 6 7 8 9 10 11 12 13 14 15 16 17 18 19 20 21 22 23 24 25 26 27 28 29 30 31 32 33 34 35 36 37 38 39 40 41 42 43 44 45 46 47 48 49 50
000
ASUS41 KPHI 301910
RWRPHI

REGIONAL WEATHER ROUNDUP
NATIONAL WEATHER SERVICE MOUNT HOLLY NJ
300 PM EDT WED JUL 30 2014

NOTE:  "FAIR" INDICATES FEW OR NO CLOUDS BELOW 12,000 FEET WITH NO
SIGNIFICANT WEATHER AND/OR OBSTRUCTIONS TO VISIBILITY.

 * = STATION DOES NOT REPORT PRECIPITATION (E.G. RAIN, SNOW, ETC.)
        OR FOG.

NJZ015>026-302000-
SOUTHERN NEW JERSEY

CITY           SKY/WX    TMP DP  RH WIND       PRES   REMARKS
POMONA         PTSUNNY   78  50  37 VRB5      30.03S
RIO GRANDE*    SUNNY     75  52  43 W9        30.06S
MILLVILLE      CLOUDY    79  52  38 NW12G18   30.04S
WRIGHTSTOWN    MOSUNNY   79  48  33 VRB5      30.00F
MOUNT HOLLY    MOSUNNY   77  49  37 CALM      30.02F
TRENTON        MOSUNNY   77  49  37 VRB6      30.02S

$$
NJZ001>014-302000-
NORTHERN NEW JERSEY

CITY           SKY/WX    TMP DP  RH WIND       PRES   REMARKS
SUSSEX         MOSUNNY   76  53  44 VRB3      30.01F
ANDOVER*         N/A     74  53  48 SW8       30.02F
MORRISTOWN     MOSUNNY   79  50  36 W13       30.01F
NEWARK         MOSUNNY   81  48  31 W13       30.00F
TETERBORO      PTSUNNY   82  48  30 W7        29.99S
CALDWELL       PTSUNNY   77  49  37 W7        30.01S
SOMERVILLE     SUNNY     79  51  37 W3        30.00S
ALLAIRE*       SUNNY     79  50  36 W7        30.02S
TOMS RIVER*    SUNNY     79  46  31 CALM      30.02S

$$
PAZ043-044-047-054-055-060>062-066>071-302000-
EASTERN PENNSYLVANIA

CITY           SKY/WX    TMP DP  RH WIND       PRES   REMARKS
PHILADELPHIA   MOSUNNY   79  51  37 SW9       30.03S
NORTH PHILA    MOSUNNY   80  49  33 SW8       30.03F
BLUE BELL      MOSUNNY   77  55  47 W3        30.03S
DOYLESTOWN     PTSUNNY   76  52  43 W6        30.02F
QUAKERTOWN*    MOSUNNY   75  54  46 W7        30.04F
POTTSTOWN      PTSUNNY   74  54  49 W5        30.04F
LANCASTER      SUNNY     75  53  46 NW7       30.04F
COATESVILLE    SUNNY     75  54  46 SW5       30.06S
READING        SUNNY     78  52  40 W10       30.03F
ALLENTOWN      PTSUNNY   77  53  43 W9        30.03S
MOUNT POCONO   CLOUDY    70  48  45 W10       30.06S
HAZLETON       MOSUNNY   70  52  52 SW5       30.08F
WILKES BARRE   CLOUDY    73  49  42 W8        30.02F

$$
DEZALL-MDZ008-012-015-019-020-302000-
DELAWARE AND EASTERN MARYLAND

CITY           SKY/WX    TMP DP  RH WIND       PRES   REMARKS
WILMINGTON     MOSUNNY   77  53  43 CALM      30.04F
GEORGETOWN       N/A     77  51  40 MISG      30.06S
EASTON         MOSUNNY   77  52  41 W7        30.10F
PATUXENT       MOSUNNY   79  46  31 VRB7      30.06S
OCEAN CITY     MOSUNNY   75  58  55 SE9       30.06S
WALLOPS ISLAND SUNNY     81  52  36 NW9       30.06F
CAMBRIDGE      SUNNY     77  46  33 SW6       30.06S
SALISBURY      MOSUNNY   81  51  35 W8        30.05S

$$
PAZ001-021-NYZ056-072-MDZ011-DCZ001-302000-
OTHER NEARBY LOCATIONS

CITY           SKY/WX    TMP DP  RH WIND       PRES   REMARKS
HARRISBURG     MOSUNNY   76  53  44 CALM      30.03F
STATE COLLEGE  PTSUNNY   72  55  56 SW12      30.03S
WILLIAMSPORT   PTSUNNY   74  54  49 S3        30.00F
BINGHAMTON     CLOUDY    66  54  65 S5        30.02S
NEW YORK CITY  PTSUNNY   78  48  34 VRB5      30.03S
BALTIMORE      MOSUNNY   80  48  32 NW3       30.04F
WASHINGTON DC  MOSUNNY   79  52  38 S10       30.06F

$$



USA.gov is the U.S. government's official web portal to all federal, state and local government web resources and services.